GW0416 Weather Reports


time (UTC)temp
C
wind
direction
speed
KPH
gust
KPH
rain 1hr
cm
rain 24hr
cm
rain mn
cm
humidity
%
barometer
mb
20260503194531 20 324 27.4 46.7 0.00 0.00 0.00 20 1010.7
20260503193030 20 296 17.7 33.8 0.00 0.00 0.00 20 1010.9
20260503191528 20 312 24.1 37.0 0.00 0.00 0.00 22 1011.2
20260503190032 20 281 19.3 35.4 0.00 0.00 0.00 21 1011.2
20260503184536 20 259 20.9 38.6 0.00 0.00 0.00 22 1011.3
20260503183029 20 313 27.4 37.0 0.00 0.00 0.00 22 1011.5
20260503181529 20 269 20.9 40.2 0.00 0.00 0.00 23 1011.6
20260503180035 20 306 16.1 37.0 0.00 0.00 0.00 24 1011.8
20260503174532 19 286 29.0 43.5 0.00 0.00 0.00 24 1012.0
20260503173034 20 298 20.9 38.6 0.00 0.00 0.00 25 1012.2
20260503171537 19 286 16.1 35.4 0.00 0.00 0.00 24 1012.2
20260503081534 8 284 4.8 14.5 0.00 0.00 0.00 67 1015.2
20260503071552 8 266 3.2 9.7 0.00 0.00 0.00 65 1015.7
20260503054530 10 312 3.2 6.4 0.00 0.00 0.00 58 1015.9
20260503053036 11 312 4.8 8.0 0.00 0.00 0.00 54 1015.9
20260503051530 10 304 4.8 12.9 0.00 0.00 0.00 53 1016.1
20260503050032 12 288 4.8 16.1 0.00 0.00 0.00 48 1016.1
20260503044544 12 202 12.9 19.3 0.00 0.00 0.00 50 1016.0
20260503043042 12 144 9.7 12.9 0.00 0.00 0.00 48 1016.1
20260503041530 12 200 3.2 9.7 0.00 0.00 0.00 49 1016.2
20260503040038 13 138 4.8 8.0 0.00 0.00 0.00 46 1016.0
20260503034532 13 85 3.2 6.4 0.00 0.00 0.00 46 1016.2
20260503033032 12 85 4.8 11.3 0.00 0.00 0.00 46 1016.2
20260503031534 13 90 4.8 11.3 0.00 0.00 0.00 45 1015.9
20260503030032 13 81 9.7 12.9 0.00 0.00 0.00 44 1015.8
20260503024529 13 78 9.7 12.9 0.00 0.00 0.00 45 1015.7
20260503023030 14 80 8.0 12.9 0.00 0.00 0.00 43 1015.7
20260503021529 16 67 9.7 14.5 0.00 0.00 0.00 40 1015.7
20260503020030 16 49 3.2 6.4 0.00 0.00 0.00 39 1015.6
20260503014529 17 40 4.8 9.7 0.00 0.00 0.00 38 1015.7
20260503013034 17 36 8.0 12.9 0.00 0.00 0.00 38 1015.6
20260503011535 17 22 4.8 12.9 0.00 0.00 0.00 39 1015.9
20260503010036 17 350 9.7 16.1 0.00 0.00 0.00 39 1015.9
20260503004554 17 9 4.8 8.0 0.00 0.00 0.00 38 1015.9
20260503003032 17 330 8.0 16.1 0.00 0.00 0.00 38 1016.2
20260503001530 17 350 11.3 16.1 0.00 0.00 0.00 38 1016.3
20260503000043 18 28 3.2 11.3 0.00 0.00 0.00 36 1016.3
20260502234532 18 336 4.8 17.7 0.00 0.00 0.00 36 1016.4
20260502233029 18 5 8.0 16.1 0.00 0.00 0.00 35 1016.5
20260502231533 17 0 1.6 16.1 0.00 0.00 0.00 39 1016.8
20260502230032 17 314 9.7 16.1 0.00 0.00 0.00 39 1017.0
20260502224532 17 350 14.5 19.3 0.00 0.00 0.00 38 1017.2
20260502223031 18 36 8.0 19.3 0.00 0.00 0.00 37 1017.3
20260502221530 17 330 8.0 19.3 0.00 0.00 0.00 39 1017.5
20260502220033 17 264 1.6 19.3 0.00 0.00 0.00 39 1017.8
20260502214528 17 5 11.3 20.9 0.00 0.00 0.00 40 1018.1
20260502213039 17 76 8.0 22.5 0.00 0.00 0.00 38 1018.1
20260502211536 17 34 4.8 17.7 0.00 0.00 0.00 40 1018.2
20260502210032 16 288 8.0 24.1 0.00 0.00 0.00 41 1018.6
20260502204530 17 36 12.9 27.4 0.00 0.00 0.00 40 1018.7
20260502203030 16 63 8.0 24.1 0.00 0.00 0.00 41 1018.7
20260502201533 16 360 9.7 24.1 0.00 0.00 0.00 42 1018.8
20260502200034 15 50 11.3 24.1 0.00 0.00 0.00 44 1019.1